Simultaneous Nadir Overpasses (SNOs) Predictions

Prediction of SNOs between LANDSAT-8 and METOP-A Satellite Orbit:

Table of predicted SNOs for the next 14.0 days since TLE Epoch: 5/30/2020
Index Date (LANDSAT-8) Time (LANDSAT-8) Lat,Lon (LANDSAT-8) SZA (LANDSAT-8 ) Date (METOP-A) Time (METOP-A) Lat,Lon (METOP-A) SZA (METOP-A ) Distance(km) Time Diff (sec)
1 05/30/2020 11:50:09 81.48, 49.11 62.46 05/30/2020 11:49:27 81.47, 49.19 62.45 1.43 42
2 05/30/2020 12:39:36 -81.48,-143.30 117.55 05/30/2020 12:40:07 -81.47,-143.15 117.53 2.69 31
3 06/02/2020 07:24:24 81.48, 115.45 62.06 06/02/2020 07:23:48 81.47, 115.54 62.05 1.45 36
4 06/02/2020 08:13:51 -81.47, -76.94 117.95 06/02/2020 08:14:28 -81.47, -76.78 117.92 2.68 37
5 06/05/2020 02:58:40 81.47,-178.21 61.71 06/05/2020 02:58:10 81.47,-178.12 61.71 1.49 30
6 06/05/2020 03:48:07 -81.47, -10.57 118.30 06/05/2020 03:48:50 -81.47, -10.42 118.27 2.58 43
7 06/07/2020 22:32:56 81.47,-111.86 61.41 06/07/2020 22:32:32 81.47,-111.78 61.41 1.57 24
8 06/07/2020 23:22:23 -81.47, 55.79 118.60 06/07/2020 23:23:12 -81.47, 55.93 118.56 2.40 49
9 06/10/2020 18:07:11 81.46, -45.52 61.16 06/10/2020 18:06:53 81.47, -45.46 61.16 1.72 18




NCC Satellite Simultaneous Nadir Overpasses (SNOs) Prediction Service
